Torrington, WY

1:00 AM MDT on June 28, 2017 (GMT -0600)
Torrington Municipal

Weather History for KTOR - June, 2013

Change the Weather History Date:

Monday, June 10, 2013

  Actual Average Record
Temperature  
Mean Temperature 76 °F 64 °F  
Max Temperature 99 °F 79 °F 99 °F (2013)
Min Temperature 52 °F 50 °F 41 °F (2011)
Degree Days  
Heating Degree Days 0 3  
Month to date heating degree days 32 43  
Since 1 June heating degree days 32 43  
Since 1 July heating degree days 6512 6554  
Cooling Degree Days 11 3  
Month to date cooling degree days 16 22  
Year to date cooling degree days 55 40  
Since 1 June cooling degree days 16 22  
Growing Degree Days 26 (Base 50)    
Moisture  
Dew Point 43 °F    
Average Humidity 45    
Maximum Humidity 77    
Minimum Humidity 12    
Precipitation  
Precipitation T in 0.10 in 0.80 in (2015)
Month to date precipitation 0.14 1.06  
Year to date precipitation 3.90 6.54  
Sea Level Pressure  
Sea Level Pressure 29.70 in    
Wind  
Wind Speed 7 mph (ESE)    
Max Wind Speed 14 mph    
Max Gust Speed 61 mph    
Visibility 10 miles    
Events Rain , Thunderstorm    
T = Trace of Precipitation, MM = Missing Value Source: NWS Daily Summary

Daily Weather History Graph

Daily Weather History Graph

Search for Another Location

Airport or City:

Trip Planner

Search our weather history database for the weather conditions in past years. The results will help you decide how hot, cold, wet, or windy it might be!

Date:

Astronomy

Jun. 10, 2013 Rise Set
Actual Time 5:20 AM MDT 8:31 PM MDT
Civil Twilight 4:46 AM MDT 9:06 PM MDT
Nautical Twilight 4:02 AM MDT 9:50 PM MDT
Astronomical Twilight 3:09 AM MDT 10:43 PM MDT
Moon 7:12 AM MDT (6/10) 9:58 PM MDT (6/10)
Length of Visible Light 16h 20m
Length of Day
15h 11m
Waxing Crescent, 4% of the Moon is Illuminated
Jun 10
Waxing Crescent
Jun 16
First Quarter
Jun 23
Full
Jun 29
Last Quarter
Jul 8
New

Hourly Weather History & Observations

Time (MDT) Temp. Dew Point Humidity Pressure Visibility Wind Dir Wind Speed Gust Speed Precip Events Conditions
12:53 AM 62.1 °F 48.0 °F 60% 29.70 in 10.0 mi ESE 11.5 mph - N/A   Clear
1:53 AM 59.0 °F 48.0 °F 67% 29.69 in 10.0 mi East 13.8 mph - N/A   Clear
2:53 AM 60.1 °F 46.0 °F 60% 29.67 in 10.0 mi East 10.4 mph - N/A   Clear
3:53 AM 57.0 °F 46.9 °F 69% 29.66 in 10.0 mi East 10.4 mph - N/A   Clear
4:53 AM 53.1 °F 46.0 °F 77% 29.68 in 10.0 mi East 5.8 mph - N/A   Clear
5:53 AM 54.0 °F 46.0 °F 75% 29.69 in 10.0 mi NE 3.5 mph - N/A   Clear
6:53 AM 57.9 °F 46.9 °F 67% 29.70 in 10.0 mi Calm Calm - N/A   Clear
7:53 AM 62.1 °F 48.0 °F 60% 29.71 in 10.0 mi Calm Calm - N/A   Clear
8:53 AM 70.0 °F 46.9 °F 44% 29.70 in 10.0 mi Calm Calm - N/A   Clear
9:53 AM 77.0 °F 48.9 °F 37% 29.70 in 10.0 mi Variable 3.5 mph - N/A   Clear
11:53 AM 91.0 °F 42.1 °F 18% 29.68 in 10.0 mi SW 5.8 mph - N/A   Clear
12:53 PM 95.0 °F 41.0 °F 15% 29.65 in 10.0 mi Variable 4.6 mph - N/A   Clear
1:53 PM 98.1 °F 39.0 °F 13% 29.62 in 10.0 mi Variable 6.9 mph - N/A   Clear
2:53 PM 93.9 °F 37.9 °F 14% 29.62 in 10.0 mi SSE 6.9 mph - N/A   Clear
3:11 PM 91.4 °F 35.6 °F 14% 29.79 in 8.0 mi Variable 3.5 mph 61.0 mph 0.00 in Rain Light Rain
3:53 PM 96.1 °F 35.1 °F 12% 29.60 in 10.0 mi SSE 11.5 mph 16.1 mph 0.00 in   Clear
4:25 PM 91.4 °F 37.4 °F 15% 29.79 in 10.0 mi South 24.2 mph 31.1 mph N/A Thunderstorm Thunderstorm
4:53 PM 90.0 °F 39.9 °F 17% 29.65 in 10.0 mi SE 8.1 mph - N/A   Partly Cloudy
5:15 PM 89.6 °F 39.2 °F 17% 29.81 in 10.0 mi ESE 10.4 mph 17.3 mph N/A Thunderstorm Clear
5:34 PM 87.8 °F 39.2 °F 18% 29.85 in 10.0 mi South 23.0 mph 50.6 mph 0.00 in Rain Light Rain
5:44 PM 87.8 °F 39.2 °F 18% 29.82 in 10.0 mi NNE 18.4 mph 35.7 mph 0.00 in Rain Light Rain
5:53 PM 89.1 °F 39.0 °F 17% 29.66 in 10.0 mi NE 19.6 mph 42.6 mph 0.00 in Rain Light Rain
6:00 PM 87.8 °F 42.8 °F 21% 29.79 in 10.0 mi ENE 23.0 mph 27.6 mph N/A   Partly Cloudy
6:53 PM 86.0 °F 45.0 °F 24% 29.63 in 10.0 mi ENE 17.3 mph - N/A   Clear
7:53 PM 81.0 °F 46.9 °F 30% 29.65 in 10.0 mi ENE 10.4 mph - N/A   Clear